This demonstration page uses our WeatherBlox Daily Observations layout. Learn more.

Left ArrowRight Arrow

Hourly Observations for December 20, 2018

Temp ( °F °C ) Dew Point ( °F °C ) Humidity (%) Winds ( mph kmh ) Pressure ( in mb ) Visibility ( mi km ) Precip ( " mm )
12:57 am 00:57 Clear 37 2.8 28 -2.2 70 70 NW 13 20 29.95 1014 10 16 0.00 0.00
1:57 am 01:57 Clear 37 2.8 28 -2.2 70 70 NW 16 26 29.96 1015 10 16 0.00 0.00
2:57 am 02:57 Clear 37 2.8 28 -2.2 70 70 NW 17 28 29.98 1015 10 16 0.00 0.00
3:57 am 03:57 Clear 37 2.8 28 -2.2 70 70 NW 14 22 29.98 1015 10 16 0.00 0.00
4:57 am 04:57 Clear 37 2.8 27 -2.8 67 67 NW 16 26 29.98 1015 10 16 0.00 0.00
5:57 am 05:57 Clear 36 2.2 27 -2.8 70 70 NNW 17 28 30.00 1016 10 16 0.00 0.00
6:57 am 06:57 Clear 35 1.7 27 -2.8 72 72 NNW 13 20 30.04 1017 10 16 0.00 0.00
7:57 am 07:57 Sunny 35 1.7 26 -3.3 70 70 NW 15 24 30.06 1018 10 16 0.00 0.00
8:57 am 08:57 Sunny 36 2.2 27 -2.8 70 70 NW 17 28 30.08 1019 10 16 0.00 0.00
9:57 am 09:57 Sunny 39 3.9 27 -2.8 62 62 NNW 18 30 30.10 1019 10 16 0.00 0.00
10:57 am 10:57 Sunny 42 5.6 27 -2.8 55 55 NNW 25 41 30.10 1019 10 16 0.00 0.00
11:57 am 11:57 Sunny 44 6.7 27 -2.8 51 51 NNW 24 39 30.09 1019 10 16 0.00 0.00
12:57 pm 12:57 Sunny 46 7.8 27 -2.8 47 47 NNW 24 39 30.07 1018 10 16 0.00 0.00
1:57 pm 13:57 Sunny 47 8.3 26 -3.3 44 44 N 28 44 30.06 1018 10 16 0.00 0.00
2:57 pm 14:57 Sunny 47 8.3 27 -2.8 46 46 NNW 20 31 30.06 1018 10 16 0.00 0.00
3:57 pm 15:57 Sunny 46 7.8 26 -3.3 46 46 NNW 17 28 30.07 1018 10 16 0.00 0.00
4:57 pm 16:57 Sunny 43 6.1 26 -3.3 51 51 NNW 14 22 30.08 1019 10 16 0.00 0.00
6:57 pm 18:57 Clear 33 0.6 25 -3.9 72 72 WNW 8 13 30.10 1019 10 16 0.00 0.00
7:57 pm 19:57 Clear 31 -0.6 26 -3.3 82 82 NW 8 13 30.09 1019 10 16 0.00 0.00
8:57 pm 20:57 Clear 31 -0.6 26 -3.3 82 82 NW 10 17 30.08 1019 10 16 0.00 0.00
10:57 pm 22:57 Clear 28 -2.2 24 -4.4 85 85 WNW 9 15 30.04 1017 10 16 0.00 0.00
11:57 pm 23:57 Clear 27 -2.8 23 -5 85 85 NW 8 13 30.02 1017 10 16 0.00 0.00

Powered by AerisWeather